Year,Month,Day,Hour,Minute,Value (Times are PST for temperature in C)
2013,05,05,07,01,14.10
2013,05,05,07,02,14.10
2013,05,05,07,03,14.10
2013,05,05,07,04,14.10
2013,05,05,07,05,14.10
2013,05,05,07,06,14.10
2013,05,05,07,07,14.20
2013,05,05,07,08,14.20
2013,05,05,07,09,14.20
2013,05,05,07,10,14.20
2013,05,05,07,11,14.20
2013,05,05,07,12,14.20
2013,05,05,07,13,14.30
2013,05,05,07,14,14.30
2013,05,05,07,15,14.30
2013,05,05,07,16,14.30
2013,05,05,07,17,14.40
2013,05,05,07,18,14.40
2013,05,05,07,19,14.40
2013,05,05,07,20,14.50
2013,05,05,07,21,14.50
2013,05,05,07,22,14.50
2013,05,05,07,23,14.60
2013,05,05,07,24,14.60
2013,05,05,07,25,14.60
2013,05,05,07,26,14.60
2013,05,05,07,27,14.60
2013,05,05,07,28,14.60
2013,05,05,07,29,14.60
2013,05,05,07,30,14.60
2013,05,05,07,31,14.60
2013,05,05,07,32,14.70
2013,05,05,07,33,14.70
2013,05,05,07,34,14.70
2013,05,05,07,35,14.70
2013,05,05,07,36,14.70
2013,05,05,07,37,14.70
2013,05,05,07,38,14.70
2013,05,05,07,39,14.70
2013,05,05,07,40,14.70
2013,05,05,07,41,14.70
2013,05,05,07,42,14.70
2013,05,05,07,43,14.70
2013,05,05,07,44,14.70
2013,05,05,07,45,14.70
2013,05,05,07,46,14.70
2013,05,05,07,47,14.70
2013,05,05,07,48,14.70
2013,05,05,07,49,14.70
2013,05,05,07,50,14.70
2013,05,05,07,51,14.70
2013,05,05,07,52,14.70
2013,05,05,07,53,14.70
2013,05,05,07,54,14.70
2013,05,05,07,55,14.70
2013,05,05,07,56,14.70
2013,05,05,07,57,14.70
2013,05,05,07,58,14.70
2013,05,05,07,59,14.70
2013,05,05,08,00,14.70
2013,05,05,08,01,14.80
2013,05,05,08,02,14.80
2013,05,05,08,03,14.80
2013,05,05,08,04,14.80
2013,05,05,08,05,14.80
2013,05,05,08,06,14.80
2013,05,05,08,07,14.80
2013,05,05,08,08,14.80
2013,05,05,08,09,14.80
2013,05,05,08,10,14.80
2013,05,05,08,11,14.80
2013,05,05,08,12,14.90
2013,05,05,08,13,14.80
2013,05,05,08,14,14.90
2013,05,05,08,15,14.90
2013,05,05,08,16,14.80
2013,05,05,08,17,14.90
2013,05,05,08,18,14.90
2013,05,05,08,19,14.80
2013,05,05,08,20,14.80
2013,05,05,08,21,14.80
2013,05,05,08,22,14.80
2013,05,05,08,23,14.80
2013,05,05,08,24,14.80
2013,05,05,08,25,14.80
2013,05,05,08,26,14.80
2013,05,05,08,27,14.80
2013,05,05,08,28,14.80
2013,05,05,08,29,14.80
2013,05,05,08,30,14.80
2013,05,05,08,31,14.80
2013,05,05,08,32,14.80
2013,05,05,08,33,14.80
2013,05,05,08,34,14.80
2013,05,05,08,35,14.80
2013,05,05,08,36,14.80
2013,05,05,08,37,14.80
2013,05,05,08,38,14.90
2013,05,05,08,39,14.80
2013,05,05,08,40,14.80
2013,05,05,08,41,14.90
2013,05,05,08,42,14.90
2013,05,05,08,43,14.90
2013,05,05,08,44,14.90
2013,05,05,08,45,14.90
2013,05,05,08,46,14.90
2013,05,05,08,47,15.00
2013,05,05,08,48,15.00
2013,05,05,08,49,15.00
2013,05,05,08,50,14.90
2013,05,05,08,51,14.90
2013,05,05,08,52,14.90
2013,05,05,08,53,14.90
2013,05,05,08,54,14.90
2013,05,05,08,55,14.90
2013,05,05,08,56,15.00
2013,05,05,08,57,15.00
2013,05,05,08,58,15.00
2013,05,05,08,59,15.00
2013,05,05,09,00,15.00
2013,05,05,09,01,15.00
2013,05,05,09,02,15.00
2013,05,05,09,03,15.00
2013,05,05,09,04,15.00
2013,05,05,09,05,15.00
2013,05,05,09,06,15.00
2013,05,05,09,07,15.00
2013,05,05,09,08,15.00
2013,05,05,09,09,15.10
2013,05,05,09,10,15.20
2013,05,05,09,11,15.20
2013,05,05,09,12,15.20
2013,05,05,09,13,15.30
2013,05,05,09,14,15.30
2013,05,05,09,15,15.30
2013,05,05,09,16,15.30
2013,05,05,09,17,15.40
2013,05,05,09,18,15.40
2013,05,05,09,19,15.40
2013,05,05,09,20,15.50
2013,05,05,09,21,15.50
2013,05,05,09,22,15.50
2013,05,05,09,23,15.60
2013,05,05,09,24,15.60
2013,05,05,09,25,15.60
2013,05,05,09,26,15.70
2013,05,05,09,27,15.70
2013,05,05,09,28,15.70
2013,05,05,09,29,15.80
2013,05,05,09,30,15.80
2013,05,05,09,31,15.80
2013,05,05,09,32,15.80
2013,05,05,09,33,15.90
2013,05,05,09,34,15.90
2013,05,05,09,35,15.90
2013,05,05,09,36,16.00
2013,05,05,09,37,16.10
2013,05,05,09,38,16.10
2013,05,05,09,39,16.10
2013,05,05,09,40,16.20
2013,05,05,09,41,16.20
2013,05,05,09,42,16.20
2013,05,05,09,43,16.20
2013,05,05,09,44,16.20
2013,05,05,09,45,16.30
2013,05,05,09,46,16.30
2013,05,05,09,47,16.40
2013,05,05,09,48,16.40
2013,05,05,09,49,16.40
2013,05,05,09,50,16.50
2013,05,05,09,51,16.50
2013,05,05,09,52,16.50
2013,05,05,09,53,16.60
2013,05,05,09,54,16.60
2013,05,05,09,55,16.60
2013,05,05,09,56,16.60
2013,05,05,09,57,16.60
2013,05,05,09,58,16.60
2013,05,05,09,59,16.60
2013,05,05,10,00,16.60
2013,05,05,10,01,16.60
2013,05,05,10,02,16.60
2013,05,05,10,03,16.70
2013,05,05,10,04,16.70
2013,05,05,10,05,16.70
2013,05,05,10,06,16.80
2013,05,05,10,07,16.80
2013,05,05,10,08,16.90
2013,05,05,10,09,16.90
2013,05,05,10,10,17.00
2013,05,05,10,11,17.00
2013,05,05,10,12,16.90
2013,05,05,10,13,16.90
2013,05,05,10,14,16.90
2013,05,05,10,15,16.90
2013,05,05,10,16,17.00
2013,05,05,10,17,17.10
2013,05,05,10,18,17.10
2013,05,05,10,19,17.20
2013,05,05,10,20,17.20
2013,05,05,10,21,17.30
2013,05,05,10,22,17.30
2013,05,05,10,23,17.40
2013,05,05,10,24,17.40
2013,05,05,10,25,17.50
2013,05,05,10,26,17.50
2013,05,05,10,27,17.60
2013,05,05,10,28,17.60
2013,05,05,10,29,17.60
2013,05,05,10,30,17.70
2013,05,05,10,31,17.70
2013,05,05,10,32,17.80
2013,05,05,10,33,17.90
2013,05,05,10,34,17.90
2013,05,05,10,35,18.00
2013,05,05,10,36,18.10
2013,05,05,10,37,18.20
2013,05,05,10,38,18.20
2013,05,05,10,39,18.30
2013,05,05,10,40,18.40
2013,05,05,10,41,18.40
2013,05,05,10,42,18.50
2013,05,05,10,43,18.50
2013,05,05,10,44,18.60
2013,05,05,10,45,18.60
2013,05,05,10,46,18.70
2013,05,05,10,47,18.80
2013,05,05,10,48,18.90
2013,05,05,10,49,19.00
2013,05,05,10,50,19.10
2013,05,05,10,51,19.10
2013,05,05,10,52,19.10
2013,05,05,10,53,19.10
2013,05,05,10,54,19.10
2013,05,05,10,55,19.10
2013,05,05,10,56,19.20
2013,05,05,10,57,19.20
2013,05,05,10,58,19.20
2013,05,05,10,59,19.20
2013,05,05,11,00,19.20
2013,05,05,11,01,19.20
2013,05,05,11,02,19.20
2013,05,05,11,03,19.10
2013,05,05,11,04,19.10
2013,05,05,11,05,19.10
2013,05,05,11,06,19.20
2013,05,05,11,07,19.20
2013,05,05,11,08,19.30
2013,05,05,11,09,19.30
2013,05,05,11,10,19.40
2013,05,05,11,11,19.40
2013,05,05,11,12,19.40
2013,05,05,11,13,19.50
2013,05,05,11,14,19.50
2013,05,05,11,15,19.60
2013,05,05,11,16,19.60
2013,05,05,11,17,19.70
2013,05,05,11,18,19.70
2013,05,05,11,19,19.80
2013,05,05,11,20,19.80
2013,05,05,11,21,19.80
2013,05,05,11,22,19.80
2013,05,05,11,23,19.80
2013,05,05,11,24,19.90
2013,05,05,11,25,19.90
2013,05,05,11,26,19.90
2013,05,05,11,27,20.00
2013,05,05,11,28,20.10
2013,05,05,11,29,20.10
2013,05,05,11,30,20.20
2013,05,05,11,31,20.20
2013,05,05,11,32,20.20
2013,05,05,11,33,20.30
2013,05,05,11,34,20.30
2013,05,05,11,35,20.40
2013,05,05,11,36,20.40
2013,05,05,11,37,20.30
2013,05,05,11,38,20.30
2013,05,05,11,39,20.30
2013,05,05,11,40,20.30
2013,05,05,11,41,20.30
2013,05,05,11,42,20.40
2013,05,05,11,43,20.40
2013,05,05,11,44,20.40
2013,05,05,11,45,20.40
2013,05,05,11,46,20.30
2013,05,05,11,47,20.30
2013,05,05,11,48,20.30
2013,05,05,11,49,20.30
2013,05,05,11,50,20.40
2013,05,05,11,51,20.50
2013,05,05,11,52,20.50
2013,05,05,11,53,20.60
2013,05,05,11,54,20.60
2013,05,05,11,55,20.60
2013,05,05,11,56,20.60
2013,05,05,11,57,20.60
2013,05,05,11,58,20.60
2013,05,05,11,59,20.60
2013,05,05,12,00,20.70
2013,05,05,12,01,20.80
2013,05,05,12,02,20.80
2013,05,05,12,03,20.90
2013,05,05,12,04,20.90
2013,05,05,12,05,20.90
2013,05,05,12,06,20.90
2013,05,05,12,07,20.90
2013,05,05,12,08,20.90
2013,05,05,12,09,20.90
2013,05,05,12,10,20.90
2013,05,05,12,11,21.00
2013,05,05,12,12,21.10
2013,05,05,12,13,21.20
2013,05,05,12,14,21.30
2013,05,05,12,15,21.40
2013,05,05,12,16,21.40
2013,05,05,12,17,21.40
2013,05,05,12,18,21.40
2013,05,05,12,19,21.50
2013,05,05,12,20,21.60
2013,05,05,12,21,21.60
2013,05,05,12,22,21.70
2013,05,05,12,23,21.70
2013,05,05,12,24,21.70
2013,05,05,12,25,21.70
2013,05,05,12,26,21.60
2013,05,05,12,27,21.60
2013,05,05,12,28,21.70
2013,05,05,12,29,21.70
2013,05,05,12,30,21.70
2013,05,05,12,31,21.80
2013,05,05,12,32,21.80
2013,05,05,12,33,21.80
2013,05,05,12,34,21.80
2013,05,05,12,35,21.90
2013,05,05,12,36,21.90
2013,05,05,12,37,22.00
2013,05,05,12,38,22.10
2013,05,05,12,39,22.10
2013,05,05,12,40,22.30
2013,05,05,12,41,22.30
2013,05,05,12,42,22.40
2013,05,05,12,43,22.40
2013,05,05,12,44,22.50
2013,05,05,12,45,22.60
2013,05,05,12,46,22.60
2013,05,05,12,47,22.60
2013,05,05,12,48,22.60
2013,05,05,12,49,22.60
2013,05,05,12,50,22.60
2013,05,05,12,51,22.70
2013,05,05,12,52,22.80
2013,05,05,12,53,22.90
2013,05,05,12,54,23.00
2013,05,05,12,55,23.10
2013,05,05,12,56,23.20
2013,05,05,12,57,23.20
2013,05,05,12,58,23.10
2013,05,05,12,59,23.10
2013,05,05,13,00,23.10
2013,05,05,13,01,23.10
2013,05,05,13,02,23.10
2013,05,05,13,03,23.10
2013,05,05,13,04,23.10
2013,05,05,13,05,23.10
2013,05,05,13,06,23.10
2013,05,05,13,07,23.10
2013,05,05,13,08,23.10
2013,05,05,13,09,23.10
2013,05,05,13,10,23.10
2013,05,05,13,11,23.20
2013,05,05,13,12,23.20
2013,05,05,13,13,23.20
2013,05,05,13,14,23.20
2013,05,05,13,15,23.20
2013,05,05,13,16,23.10
2013,05,05,13,17,23.20
2013,05,05,13,18,23.10
2013,05,05,13,19,23.10
2013,05,05,13,20,23.20
2013,05,05,13,21,23.30
2013,05,05,13,22,23.30
2013,05,05,13,23,23.40
2013,05,05,13,24,23.40
2013,05,05,13,25,23.50
2013,05,05,13,26,23.60
2013,05,05,13,27,23.70
2013,05,05,13,28,23.70
2013,05,05,13,29,23.80
2013,05,05,13,30,23.80
2013,05,05,13,31,23.90
2013,05,05,13,32,24.00
2013,05,05,13,33,24.00
2013,05,05,13,34,24.00
2013,05,05,13,35,24.00
2013,05,05,13,36,24.00
2013,05,05,13,37,24.10
2013,05,05,13,38,24.00
2013,05,05,13,39,24.10
2013,05,05,13,40,24.10
2013,05,05,13,41,24.10
2013,05,05,13,42,24.10
2013,05,05,13,43,24.10
2013,05,05,13,44,24.20
2013,05,05,13,45,24.30
2013,05,05,13,46,24.30
2013,05,05,13,47,24.40
2013,05,05,13,48,24.40
2013,05,05,13,49,24.50
2013,05,05,13,50,24.60
2013,05,05,13,51,24.70
2013,05,05,13,52,24.80
2013,05,05,13,53,24.80
2013,05,05,13,54,24.80
2013,05,05,13,55,24.80
2013,05,05,13,56,24.70
2013,05,05,13,57,24.70
2013,05,05,13,58,24.80
2013,05,05,13,59,24.80
2013,05,05,14,00,24.80
2013,05,05,14,01,24.80
2013,05,05,14,02,24.80
2013,05,05,14,03,24.80
2013,05,05,14,04,24.80
2013,05,05,14,05,24.80
2013,05,05,14,06,24.90
2013,05,05,14,07,24.90
2013,05,05,14,08,25.00
2013,05,05,14,09,25.00
2013,05,05,14,10,25.10
2013,05,05,14,11,25.10
2013,05,05,14,12,25.20
2013,05,05,14,13,25.20
2013,05,05,14,14,25.30
2013,05,05,14,15,25.40
2013,05,05,14,16,25.40
2013,05,05,14,17,25.40
2013,05,05,14,18,25.50
2013,05,05,14,19,25.50
2013,05,05,14,20,25.50
2013,05,05,14,21,25.60
2013,05,05,14,22,25.70
2013,05,05,14,23,25.70
2013,05,05,14,24,25.70
2013,05,05,14,25,25.70
2013,05,05,14,26,25.80
2013,05,05,14,27,25.80
2013,05,05,14,28,25.90
2013,05,05,14,29,26.00
2013,05,05,14,30,26.10
2013,05,05,14,31,26.20
2013,05,05,14,32,26.30
2013,05,05,14,33,26.30
2013,05,05,14,34,26.40
2013,05,05,14,35,26.40
2013,05,05,14,36,26.50
2013,05,05,14,37,26.50
2013,05,05,14,38,26.30
2013,05,05,14,39,26.30
2013,05,05,14,40,26.30
2013,05,05,14,41,26.20
2013,05,05,14,42,26.20
2013,05,05,14,43,26.20
2013,05,05,14,44,26.30
2013,05,05,14,45,26.30
2013,05,05,14,46,26.30
2013,05,05,14,47,26.20
2013,05,05,14,48,26.10
2013,05,05,14,49,26.00
2013,05,05,14,50,26.00
2013,05,05,14,51,26.00
2013,05,05,14,52,26.00
2013,05,05,14,53,26.10
2013,05,05,14,54,26.20
2013,05,05,14,55,26.40
2013,05,05,14,56,26.50
2013,05,05,14,57,26.70
2013,05,05,14,58,26.70
2013,05,05,14,59,26.80
2013,05,05,15,00,26.80
2013,05,05,15,01,26.70
2013,05,05,15,02,26.80
2013,05,05,15,03,26.90
2013,05,05,15,04,27.00
2013,05,05,15,05,27.10
2013,05,05,15,06,27.20
2013,05,05,15,07,27.40
2013,05,05,15,08,27.50
2013,05,05,15,09,27.60
2013,05,05,15,10,27.80
2013,05,05,15,11,27.90
2013,05,05,15,12,28.00
2013,05,05,15,13,28.10
2013,05,05,15,14,28.20
2013,05,05,15,15,28.30
2013,05,05,15,16,28.30
2013,05,05,15,17,28.30
2013,05,05,15,18,28.30
2013,05,05,15,19,28.40
2013,05,05,15,20,28.30
2013,05,05,15,21,28.40
2013,05,05,15,22,28.40
2013,05,05,15,23,28.30
2013,05,05,15,24,28.20
2013,05,05,15,25,28.20
2013,05,05,15,26,28.10
2013,05,05,15,27,28.00
2013,05,05,15,28,27.90
2013,05,05,15,29,27.90
2013,05,05,15,30,27.90
2013,05,05,15,31,27.90
2013,05,05,15,32,27.90
2013,05,05,15,33,27.90
2013,05,05,15,34,27.80
2013,05,05,15,35,27.80
2013,05,05,15,36,27.80
2013,05,05,15,37,27.70
2013,05,05,15,38,27.70
2013,05,05,15,39,27.80
2013,05,05,15,40,27.80
2013,05,05,15,41,27.80
2013,05,05,15,42,27.80
2013,05,05,15,43,27.80
2013,05,05,15,44,27.80
2013,05,05,15,45,27.90
2013,05,05,15,46,27.80
2013,05,05,15,47,27.80
2013,05,05,15,48,27.70
2013,05,05,15,49,27.70
2013,05,05,15,50,27.80
2013,05,05,15,51,27.90
2013,05,05,15,52,28.00
2013,05,05,15,53,28.10
2013,05,05,15,54,28.10
2013,05,05,15,55,28.20
2013,05,05,15,56,28.20
2013,05,05,15,57,28.30
2013,05,05,15,58,28.40
2013,05,05,15,59,28.40
2013,05,05,16,00,28.40
2013,05,05,16,01,28.40
2013,05,05,16,02,28.20
2013,05,05,16,03,28.10
2013,05,05,16,04,28.00
2013,05,05,16,05,27.90
2013,05,05,16,06,27.80
2013,05,05,16,07,27.80
2013,05,05,16,08,27.80
2013,05,05,16,09,27.90
2013,05,05,16,10,27.90
2013,05,05,16,11,27.80
2013,05,05,16,12,27.70
2013,05,05,16,13,27.60
2013,05,05,16,14,27.50
2013,05,05,16,15,27.40
2013,05,05,16,16,27.30
2013,05,05,16,17,27.30
2013,05,05,16,18,27.20
2013,05,05,16,19,27.20
2013,05,05,16,20,27.10
2013,05,05,16,21,27.10
2013,05,05,16,22,27.00
2013,05,05,16,23,27.00
2013,05,05,16,24,26.90
2013,05,05,16,25,26.90
2013,05,05,16,26,26.90
2013,05,05,16,27,26.90
2013,05,05,16,28,26.80
2013,05,05,16,29,26.90
2013,05,05,16,30,27.00
2013,05,05,16,31,27.10
2013,05,05,16,32,27.20
2013,05,05,16,33,27.30
2013,05,05,16,34,27.30
2013,05,05,16,35,27.40
2013,05,05,16,36,27.50
2013,05,05,16,37,27.60
2013,05,05,16,38,27.60
2013,05,05,16,39,27.70
2013,05,05,16,40,27.70
2013,05,05,16,41,27.80
2013,05,05,16,42,27.80
2013,05,05,16,43,27.90
2013,05,05,16,44,27.90
2013,05,05,16,45,27.90
2013,05,05,16,46,28.00
2013,05,05,16,47,28.00
2013,05,05,16,48,28.10
2013,05,05,16,49,28.10
2013,05,05,16,50,28.10
2013,05,05,16,51,28.20
2013,05,05,16,52,28.30
2013,05,05,16,53,28.30
2013,05,05,16,54,28.40
2013,05,05,16,55,28.50
2013,05,05,16,56,28.60
2013,05,05,16,57,28.70
2013,05,05,16,58,28.80
2013,05,05,16,59,28.90
2013,05,05,17,00,29.00
2013,05,05,17,01,29.10
2013,05,05,17,02,29.10
2013,05,05,17,03,29.20
2013,05,05,17,04,29.20
2013,05,05,17,05,29.20
2013,05,05,17,06,29.20
2013,05,05,17,07,29.20
2013,05,05,17,08,29.20
2013,05,05,17,09,29.10
2013,05,05,17,10,29.00
2013,05,05,17,11,28.90
2013,05,05,17,12,28.80
2013,05,05,17,13,28.60
2013,05,05,17,14,28.50
2013,05,05,17,15,28.30
2013,05,05,17,16,28.20
2013,05,05,17,17,28.00
2013,05,05,17,18,27.90
2013,05,05,17,19,27.70
2013,05,05,17,20,27.60
2013,05,05,17,21,27.50
2013,05,05,17,22,27.50
2013,05,05,17,23,27.40
2013,05,05,17,24,27.40
2013,05,05,17,25,27.40
2013,05,05,17,26,27.40
2013,05,05,17,27,27.40
2013,05,05,17,28,27.40
2013,05,05,17,29,27.50
2013,05,05,17,30,27.50
2013,05,05,17,31,27.60
2013,05,05,17,32,27.70
2013,05,05,17,33,27.80
2013,05,05,17,34,27.90
2013,05,05,17,35,28.00
2013,05,05,17,36,28.10
2013,05,05,17,37,28.20
2013,05,05,17,38,28.20
2013,05,05,17,39,28.30
2013,05,05,17,40,28.40
2013,05,05,17,41,28.40
2013,05,05,17,42,28.50
2013,05,05,17,43,28.60
2013,05,05,17,44,28.60
2013,05,05,17,45,28.70
2013,05,05,17,46,28.70
2013,05,05,17,47,28.70
2013,05,05,17,48,28.80
2013,05,05,17,49,28.80
2013,05,05,17,50,28.80
2013,05,05,17,51,28.70
2013,05,05,17,52,28.60
2013,05,05,17,53,28.60
2013,05,05,17,54,28.60
2013,05,05,17,55,28.50
2013,05,05,17,56,28.50
2013,05,05,17,57,28.50
2013,05,05,17,58,28.50
2013,05,05,17,59,28.60
2013,05,05,18,00,28.60
2013,05,05,18,01,28.60
2013,05,05,18,02,28.60
2013,05,05,18,03,28.60
2013,05,05,18,04,28.70
2013,05,05,18,05,28.70
2013,05,05,18,06,28.70
2013,05,05,18,07,28.70
2013,05,05,18,08,28.70
2013,05,05,18,09,28.70
2013,05,05,18,10,28.60
2013,05,05,18,11,28.50
2013,05,05,18,12,28.40
2013,05,05,18,13,28.30
2013,05,05,18,14,28.20
2013,05,05,18,15,28.10
2013,05,05,18,16,28.00
2013,05,05,18,17,27.90
2013,05,05,18,18,27.80
2013,05,05,18,19,27.70
2013,05,05,18,20,27.70
2013,05,05,18,21,27.70
2013,05,05,18,22,27.70
2013,05,05,18,23,27.70
2013,05,05,18,24,27.80
2013,05,05,18,25,27.80
2013,05,05,18,26,27.90
2013,05,05,18,27,27.90
2013,05,05,18,28,28.00
2013,05,05,18,29,28.00
2013,05,05,18,30,27.90
2013,05,05,18,31,27.90
2013,05,05,18,32,27.90
2013,05,05,18,33,27.90
2013,05,05,18,34,27.90
2013,05,05,18,35,27.90
2013,05,05,18,36,27.90
2013,05,05,18,37,27.80
2013,05,05,18,38,27.80
2013,05,05,18,39,27.70
2013,05,05,18,40,27.70
2013,05,05,18,41,27.60
2013,05,05,18,42,27.60
2013,05,05,18,43,27.50
2013,05,05,18,44,27.40
2013,05,05,18,45,27.40
2013,05,05,18,46,27.40
2013,05,05,18,47,27.40
2013,05,05,18,48,27.40
2013,05,05,18,49,27.40
2013,05,05,18,50,27.40
2013,05,05,18,51,27.40
2013,05,05,18,52,27.40
2013,05,05,18,53,27.40
2013,05,05,18,54,27.30
2013,05,05,18,55,27.20
2013,05,05,18,56,27.10
2013,05,05,18,57,27.00
2013,05,05,18,58,26.90
2013,05,05,18,59,26.80
2013,05,05,19,00,26.80
2013,05,05,19,01,26.70
2013,05,05,19,02,26.70
2013,05,05,19,03,26.70
2013,05,05,19,04,26.70
2013,05,05,19,05,26.70
2013,05,05,19,06,26.70
2013,05,05,19,07,26.70
2013,05,05,19,08,26.60
2013,05,05,19,09,26.50
2013,05,05,19,10,26.30
2013,05,05,19,11,26.20
2013,05,05,19,12,26.10
2013,05,05,19,13,26.00
2013,05,05,19,14,25.90
2013,05,05,19,15,25.90
2013,05,05,19,16,25.80
2013,05,05,19,17,25.70
2013,05,05,19,18,25.60
2013,05,05,19,19,25.50
2013,05,05,19,20,25.50
2013,05,05,19,21,25.40
2013,05,05,19,22,25.30
2013,05,05,19,23,25.20
2013,05,05,19,24,25.20
2013,05,05,19,25,25.10
2013,05,05,19,26,25.00
2013,05,05,19,27,24.90
2013,05,05,19,28,24.80
2013,05,05,19,29,24.70
2013,05,05,19,30,24.50
2013,05,05,19,31,24.40
2013,05,05,19,32,24.30
2013,05,05,19,33,24.20
2013,05,05,19,34,24.10
2013,05,05,19,35,24.00
2013,05,05,19,36,23.90
2013,05,05,19,37,23.80
2013,05,05,19,38,23.70
2013,05,05,19,39,23.60
2013,05,05,19,40,23.40
2013,05,05,19,41,23.20
2013,05,05,19,42,23.00
2013,05,05,19,43,22.80
2013,05,05,19,44,22.70
2013,05,05,19,45,22.50
2013,05,05,19,46,22.30
2013,05,05,19,47,22.20
2013,05,05,19,48,22.10
2013,05,05,19,49,22.00
2013,05,05,19,50,21.90
2013,05,05,19,51,21.80
2013,05,05,19,52,21.80
2013,05,05,19,53,21.70
2013,05,05,19,54,21.70
2013,05,05,19,55,21.60
2013,05,05,19,56,21.50
2013,05,05,19,57,21.50
2013,05,05,19,58,21.40
2013,05,05,19,59,21.30
2013,05,05,20,00,21.30
2013,05,05,20,01,21.20
2013,05,05,20,02,21.20
2013,05,05,20,03,21.20
2013,05,05,20,04,21.10
2013,05,05,20,05,21.10
2013,05,05,20,06,21.00
2013,05,05,20,07,21.00
2013,05,05,20,08,20.90
2013,05,05,20,09,20.90
2013,05,05,20,10,20.80
2013,05,05,20,11,20.70
2013,05,05,20,12,20.60
2013,05,05,20,13,20.50
2013,05,05,20,14,20.40
2013,05,05,20,15,20.40
2013,05,05,20,16,20.30
2013,05,05,20,17,20.20
2013,05,05,20,18,20.20
2013,05,05,20,19,20.10
2013,05,05,20,20,20.00
2013,05,05,20,21,20.00
2013,05,05,20,22,19.90
2013,05,05,20,23,19.90
2013,05,05,20,24,19.80
2013,05,05,20,25,19.80
2013,05,05,20,26,19.80
2013,05,05,20,27,19.70
2013,05,05,20,28,19.70
2013,05,05,20,29,19.70
2013,05,05,20,30,19.60
2013,05,05,20,31,19.60
2013,05,05,20,32,19.50
2013,05,05,20,33,19.50
2013,05,05,20,34,19.40
2013,05,05,20,35,19.40
2013,05,05,20,36,19.40
2013,05,05,20,37,19.30
2013,05,05,20,38,19.30
2013,05,05,20,39,19.30
2013,05,05,20,40,19.20
2013,05,05,20,41,19.20
2013,05,05,20,42,19.20
2013,05,05,20,43,19.20
2013,05,05,20,44,19.10
2013,05,05,20,45,19.10
2013,05,05,20,46,19.00
2013,05,05,20,47,19.00
2013,05,05,20,48,18.90
2013,05,05,20,49,18.90
2013,05,05,20,50,18.90
2013,05,05,20,51,18.80
2013,05,05,20,52,18.80
2013,05,05,20,53,18.70
2013,05,05,20,54,18.60
2013,05,05,20,55,18.60
2013,05,05,20,56,18.50
2013,05,05,20,57,18.40
2013,05,05,20,58,18.40
2013,05,05,20,59,18.30
2013,05,05,21,00,18.30
2013,05,05,21,01,18.20
2013,05,05,21,02,18.20
2013,05,05,21,03,18.20
2013,05,05,21,04,18.10
2013,05,05,21,05,18.10
2013,05,05,21,06,18.10
2013,05,05,21,07,18.00
2013,05,05,21,08,18.00
2013,05,05,21,09,18.00
2013,05,05,21,10,17.90
2013,05,05,21,11,17.90
2013,05,05,21,12,17.90
2013,05,05,21,13,17.90
2013,05,05,21,14,17.90
2013,05,05,21,15,17.80
2013,05,05,21,16,17.80
2013,05,05,21,17,17.80
2013,05,05,21,18,17.70
2013,05,05,21,19,17.70
2013,05,05,21,20,17.70
2013,05,05,21,21,17.70
2013,05,05,21,22,17.60
2013,05,05,21,23,17.60
2013,05,05,21,24,17.50
2013,05,05,21,25,17.50
2013,05,05,21,26,17.40
2013,05,05,21,27,17.40
2013,05,05,21,28,17.40
2013,05,05,21,29,17.40
2013,05,05,21,30,17.40
2013,05,05,21,31,17.30
2013,05,05,21,32,17.30
2013,05,05,21,33,17.30
2013,05,05,21,34,17.30
2013,05,05,21,35,17.30
2013,05,05,21,36,17.20
2013,05,05,21,37,17.20
2013,05,05,21,38,17.20
2013,05,05,21,39,17.20
2013,05,05,21,40,17.20
2013,05,05,21,41,17.20
2013,05,05,21,42,17.20
2013,05,05,21,43,17.20
2013,05,05,21,44,17.20
2013,05,05,21,45,17.20
2013,05,05,21,46,17.20
2013,05,05,21,47,17.20
2013,05,05,21,48,17.10
2013,05,05,21,49,17.10
2013,05,05,21,50,17.10
2013,05,05,21,51,17.10
2013,05,05,21,52,17.10
2013,05,05,21,53,17.10
2013,05,05,21,54,17.10
2013,05,05,21,55,17.10
2013,05,05,21,56,17.10
2013,05,05,21,57,17.10
2013,05,05,21,58,17.10
2013,05,05,21,59,17.10
2013,05,05,22,00,17.10
2013,05,05,22,01,17.10
2013,05,05,22,02,17.10
2013,05,05,22,03,17.00
2013,05,05,22,04,17.00
2013,05,05,22,05,17.00
2013,05,05,22,06,17.00
2013,05,05,22,07,17.00
2013,05,05,22,08,17.00
2013,05,05,22,09,17.00
2013,05,05,22,10,17.00
2013,05,05,22,11,17.00
2013,05,05,22,12,17.00
2013,05,05,22,13,17.00
2013,05,05,22,14,16.90
2013,05,05,22,15,16.90
2013,05,05,22,16,16.90
2013,05,05,22,17,16.90
2013,05,05,22,18,16.90
2013,05,05,22,19,16.80
2013,05,05,22,20,16.80
2013,05,05,22,21,16.80
2013,05,05,22,22,16.80
2013,05,05,22,23,16.70
2013,05,05,22,24,16.70
2013,05,05,22,25,16.70
2013,05,05,22,26,16.70
2013,05,05,22,27,16.70
2013,05,05,22,28,16.70
2013,05,05,22,29,16.60
2013,05,05,22,30,16.60
2013,05,05,22,31,16.60
2013,05,05,22,32,16.60
2013,05,05,22,33,16.50
2013,05,05,22,34,16.50
2013,05,05,22,35,16.40
2013,05,05,22,36,16.40
2013,05,05,22,37,16.40
2013,05,05,22,38,16.30
2013,05,05,22,39,16.30
2013,05,05,22,40,16.30
2013,05,05,22,41,16.30
2013,05,05,22,42,16.30
2013,05,05,22,43,16.30
2013,05,05,22,44,16.30
2013,05,05,22,45,16.20
2013,05,05,22,46,16.20
2013,05,05,22,47,16.20
2013,05,05,22,48,16.20
2013,05,05,22,49,16.20
2013,05,05,22,50,16.20
2013,05,05,22,51,16.20
2013,05,05,22,52,16.20
2013,05,05,22,53,16.30
2013,05,05,22,54,16.30
2013,05,05,22,55,16.30
2013,05,05,22,56,16.30
2013,05,05,22,57,16.30
2013,05,05,22,58,16.30
2013,05,05,22,59,16.30
2013,05,05,23,00,16.30
2013,05,05,23,01,16.30
2013,05,05,23,02,16.30
2013,05,05,23,03,16.30
2013,05,05,23,04,16.30
2013,05,05,23,05,16.30
2013,05,05,23,06,16.30
2013,05,05,23,07,16.30
2013,05,05,23,08,16.30
2013,05,05,23,09,16.30
2013,05,05,23,10,16.30
2013,05,05,23,11,16.30
2013,05,05,23,12,16.30
2013,05,05,23,13,16.20
2013,05,05,23,14,16.10
2013,05,05,23,15,16.00
2013,05,05,23,16,15.90
2013,05,05,23,17,15.80
2013,05,05,23,18,15.70
2013,05,05,23,19,15.60
2013,05,05,23,20,15.50
2013,05,05,23,21,15.40
2013,05,05,23,22,15.40
2013,05,05,23,23,15.30
2013,05,05,23,24,15.20
2013,05,05,23,25,15.20
2013,05,05,23,26,15.10
2013,05,05,23,27,15.10
2013,05,05,23,28,15.00
2013,05,05,23,29,15.00
2013,05,05,23,30,15.00
2013,05,05,23,31,15.00
2013,05,05,23,32,15.00
2013,05,05,23,33,15.00
2013,05,05,23,34,15.00
2013,05,05,23,35,15.00
2013,05,05,23,36,15.00
2013,05,05,23,37,15.00
2013,05,05,23,38,15.00
2013,05,05,23,39,15.00
2013,05,05,23,40,15.00
2013,05,05,23,41,15.00
2013,05,05,23,42,15.00
2013,05,05,23,43,15.00
2013,05,05,23,44,15.00
2013,05,05,23,45,15.10
2013,05,05,23,46,15.00
2013,05,05,23,47,15.00
2013,05,05,23,48,15.00
2013,05,05,23,49,15.00
2013,05,05,23,50,15.00
2013,05,05,23,51,15.00
2013,05,05,23,52,15.00
2013,05,05,23,53,15.00
2013,05,05,23,54,15.00
2013,05,05,23,55,15.00
2013,05,05,23,56,15.00
2013,05,05,23,57,15.00
2013,05,05,23,58,15.00
2013,05,05,23,59,15.00
